Home > Weather > Bonn > Past weeks

Flag for Germany Weather for the Past 2 Weeks in Bonn, North Rhine-Westphalia, Germany

Now
46 °F

Partly sunny.


Feels Like: 42 °F
Forecast: 41 / 56 °F
Wind: 8 mph from North

Location: Koeln / Bonn

Current Time: Apr 30, 2016 at 1:19:54 PM

Latest Report: Apr 30, 2016 at 12:50 PM


Visibility: N/A

Pressure: 30.07 "Hg

Humidity: 82%

Dew Point: 41 °F

Location of BonnLocation

Historic Weather in Bonn — Graph

°F

Bonn Temperature Yesterday

Maximum temperature yesterday: 59 °F (at 4:20 PM)
Minimum temperature yesterday: 36 °F (at 5:20 AM)
Average temperature yesterday: 47 °F

High & Low Weather Summary for the Past Weeks

 TemperatureHumidityPressure
High70 °F (Apr 21, 3:50 PM)100% (Apr 18, 4:20 AM)30.45 "Hg (Apr 18, 4:20 AM)
Low30 °F (Apr 18, 5:50 AM)23% (Apr 21, 4:50 PM)29.53 "Hg (Apr 16, 3:50 AM)
Average46 °F68%29.95 "Hg
* Reported Apr 15 11:20 AM — Apr 30 11:50 AM, Bonn, Weather by CustomWeather, © 2016

Note: Actual official high and low records may vary slightly from our data, if they occured in-between our weather recording intervals... More about our weather records

Advertising

Bonn Weather History for the Previous 24 Hours

Scroll right to see more
 ConditionsComfort  
Time TempWeatherWind HumidityBarometerVisibility
11:50 AM
Sat, Apr 30
46 °FLight rain. Broken clouds.6 mph82%30.07 "HgN/A
11:20 AM45 °FLight rain. Broken clouds.6 mph81%30.07 "HgN/A
10:20 AM45 °FPartly sunny.6 mph87%30.07 "HgN/A
9:50 AM45 °FDrizzle. Partly sunny.6 mph87%30.07 "HgN/A
9:20 AM45 °FDrizzle. Low clouds.5 mph87%30.07 "HgN/A
8:50 AM45 °FDrizzle. Partly sunny.6 mph87%30.04 "HgN/A
8:20 AM43 °FDrizzle. Broken clouds.6 mph100%30.04 "HgN/A
7:50 AM43 °FLight rain. More clouds than sun.6 mph93%30.04 "Hg6 mi
7:20 AM43 °FRain. Partly sunny.3 mph93%30.04 "Hg5 mi
6:50 AM43 °FLight rain. Passing clouds.2 mph93%30.04 "Hg5 mi
6:20 AM43 °FLight rain. Partly cloudy.1 mph93%30.01 "HgN/A
5:50 AM43 °FLight rain. Partly cloudy.1 mph93%30.01 "HgN/A
5:20 AM43 °FLight rain. Partly cloudy.2 mph93%30.01 "HgN/A
4:50 AM43 °FLight rain. Partly cloudy.2 mph93%30.01 "HgN/A
4:20 AM43 °FPartly cloudy.1 mph93%30.01 "HgN/A
3:50 AM43 °FPartly cloudy.3 mph93%30.01 "HgN/A
3:20 AM43 °FLight rain. Partly cloudy.5 mph93%29.98 "HgN/A
2:50 AM45 °FPartly cloudy.2 mph87%30.01 "HgN/A
1:50 AM45 °FPassing clouds.5 mph81%29.98 "HgN/A
1:20 AM45 °FPassing clouds.6 mph81%30.01 "HgN/A
12:50 AM45 °FPassing clouds.3 mph87%30.01 "HgN/A
12:20 AM45 °FPassing clouds.2 mph87%30.01 "HgN/A
11:50 PM
Fri, Apr 29
45 °FPartly cloudy.6 mph87%30.01 "HgN/A
11:20 PM45 °FPartly cloudy.2 mph87%30.01 "HgN/A
10:20 PM45 °FPassing clouds.3 mph87%30.01 "HgN/A
9:50 PM46 °FPassing clouds.2 mph82%30.01 "HgN/A
9:20 PM46 °FPartly sunny.1 mph82%30.01 "HgN/A
8:50 PM46 °FPartly sunny.5 mph82%30.01 "HgN/A
8:20 PM46 °FPartly sunny.8 mph82%30.01 "HgN/A
7:50 PM48 °FPartly sunny.9 mph76%29.98 "HgN/A
7:20 PM52 °FPartly sunny.17 mph58%29.98 "HgN/A
6:50 PM54 °FBroken clouds.14 mph44%29.98 "HgN/A
6:20 PM55 °FBroken clouds.17 mph44%29.95 "HgN/A
5:50 PM55 °FBroken clouds.18 mph44%29.95 "HgN/A
5:20 PM55 °FBroken clouds.18 mph41%29.95 "HgN/A
4:50 PM57 °FBroken clouds.18 mph41%29.95 "HgN/A
4:20 PM59 °FPartly sunny.20 mph39%29.95 "HgN/A
3:50 PM55 °FBroken clouds.16 mph44%29.98 "HgN/A
3:20 PM55 °FPartly sunny.17 mph44%29.98 "HgN/A
2:50 PM55 °FPartly sunny.20 mph44%29.98 "HgN/A
2:20 PM55 °FBroken clouds.18 mph44%29.95 "HgN/A
1:50 PM55 °FPartly sunny.20 mph47%29.95 "HgN/A
1:20 PM55 °FBroken clouds.21 mph44%29.98 "HgN/A
Weather by CustomWeather, © 2016

See weather overviewHow to use our weather pages